[[{"header":{"parameterUnit":"m.s-1","parameterCategory":2,"la1":30.2992,"la2":30.254,"lo1":-89.0895,"lo2":-89.0443,"dy":0.0025,"dx":0.0025,"nx":19,"ny":19,"refTime":"2026-05-08T21:00:00:Z","depth":"0","parameterNumber":2,"parameterNumberName":"U-component_of_CURRENTS"},"data":[0,0,0,0.2077,0.2077,0.2056,0.2056,0.2056,0.2056,0,0,0,0,0,0,0,0,0,0,0,0.2085,0.2085,0.2077,0.2077,0.2056,0.2056,0.2056,0.2056,0,0,0,0,0,0,0,0,0,0,0,0.2085,0.2085,0.2085,0.2076,0.2056,0.2056,0.2056,0.2064,0,0,0,0,0,0,0,0,0,0,0.208,0.2093,0.2085,0.2085,0.2076,0.2056,0.2056,0.2064,0.2063,0.2075,0,0.2076,0,0.2069,0.2057,0.2058,0,0,0,0.2071,0.2094,0.2082,0.2085,0.2076,0.2056,0.2064,0.2063,0.2063,0.2075,0.2076,0.2076,0.2069,0.2058,0.2058,0.2111,0.2111,0,0,0.2072,0.2087,0.2082,0.2082,0.2077,0.2064,0.2063,0.2063,0.2069,0.2076,0.2075,0.2069,0.2058,0.2058,0.2111,0.2111,0,0,0,0.2079,0.2088,0.2075,0.2082,0.2078,0.2064,0.2062,0.2069,0.2064,0.2075,0.2069,0.2058,0.2058,0.211,0.2111,0.2126,0,0,0,0.208,0.2092,0.2076,0.2086,0.2078,0.2072,0.207,0.2063,0.2063,0.2069,0.2058,0.2058,0.211,0.211,0.2125,0.2177,0,0,0,0.2085,0.2093,0.2091,0.2086,0.2079,0.2071,0.2065,0.2063,0.206,0.2058,0.2058,0.2109,0.211,0.2123,0.2173,0.2223,0,0,0,0.21,0.2086,0.2091,0.2076,0.2079,0.2066,0.2065,0.2059,0.2057,0.2058,0.211,0.2111,0.2123,0.2171,0.222,0.2196,0.2206,0,0,0.2083,0.2085,0.2073,0.2076,0.2069,0.2068,0.2079,0.2076,0.2081,0.2109,0.211,0.2125,0.2173,0.2222,0.2259,0.2267,0,0,0,0.2067,0.2074,0.2068,0.2071,0.2059,0.2092,0.208,0.2093,0.212,0.2087,0.2143,0.2174,0.2204,0.2184,0.2191,0.2055,0.2116,0.2116,0.2116,0.209,0.2078,0.2091,0.2092,0.2095,0.2108,0.2136,0.2164,0.2135,0.216,0.2197,0.2268,0.2245,0.2251,0.211,0.2187,0.2187,0.2187,0.2187,0.2129,0.2141,0.2155,0.2167,0.2183,0.2204,0.2223,0.2217,0.2275,0.2237,0.2264,0.2216,0.2259,0.2106,0.2188,0.2188,0.2188,0.2188,0.2188,0.2191,0.2186,0.2211,0.2231,0.2272,0.2271,0.2319,0.233,0.2333,0.236,0.2346,0.2345,0.2204,0.2364,0.2365,0.2365,0.2365,0.2366,0.2366,0.2225,0.2243,0.225,0.2284,0.2289,0.2325,0.2375,0.2403,0.2427,0.2408,0.2407,0.2216,0.2323,0.2309,0.2373,0.2372,0.2371,0.237,0.237,0.222,0.2225,0.2235,0.2239,0.2266,0.227,0.2354,0.241,0.2466,0.2471,0.2282,0.2427,0.2434,0.2427,0.2416,0.2504,0.2504,0.2504,0.2504,0.2184,0.2199,0.2173,0.2171,0.2198,0.2231,0.2224,0.2291,0.2303,0.2267,0.226,0.2165,0.2165,0.215,0.215,0.2131,0.2145,0.2145,0.2144,0.2127,0.2138,0.2097,0.2124,0.2147,0.2167,0.2109,0.205,0.2074,0.2115,0.2077,0.2093,0.1935,0.1947,0.1908,0.1918,0.1882,0,0]},{"header":{"parameterUnit":"m.s-1","parameterCategory":2,"la1":30.2992,"la2":30.254,"lo1":-89.0895,"lo2":-89.0443,"dy":0.0025,"dx":0.0025,"nx":19,"ny":19,"refTime":"2026-05-08T21:00:00:Z","depth":"0","parameterNumber":3,"parameterNumberName":"V-component_of_CURRENTS"},"data":[0,0,0,0.0429,0.0429,0.0428,0.0428,0.0373,0.0372,0,0,0,0,0,0,0,0,0,0,0,0.0429,0.0429,0.0428,0.0429,0.0428,0.0428,0.0373,0.0372,0,0,0,0,0,0,0,0,0,0,0,0.0429,0.0429,0.0429,0.0429,0.0428,0.0428,0.0373,0.0384,0,0,0,0,0,0,0,0,0,0,0.039,0.0397,0.0429,0.0429,0.0429,0.0428,0.0428,0.0385,0.0383,0.0361,0,0.037,0,0.0374,0.0368,0.0368,0,0,0,0.0418,0.0398,0.0406,0.0429,0.0429,0.0428,0.0425,0.0385,0.0382,0.0358,0.037,0.0368,0.0373,0.0368,0.0367,0.0367,0.0367,0,0,0.0418,0.0416,0.0408,0.0405,0.0441,0.0426,0.0426,0.0384,0.038,0.037,0.0367,0.0372,0.0367,0.0367,0.0366,0.0367,0,0,0,0.0425,0.0416,0.0426,0.0407,0.0414,0.0426,0.0426,0.0382,0.0388,0.0367,0.0371,0.0367,0.0366,0.0366,0.0367,0.0434,0,0,0,0.0425,0.0422,0.0426,0.0423,0.0415,0.0404,0.0425,0.0391,0.0387,0.0371,0.0367,0.0366,0.0365,0.0366,0.0431,0.0493,0,0,0,0.0427,0.0421,0.0427,0.0424,0.043,0.0405,0.0408,0.039,0.0389,0.0368,0.0365,0.0365,0.0366,0.0429,0.0487,0.0505,0,0,0,0.0416,0.0439,0.0427,0.0453,0.043,0.0453,0.0409,0.0409,0.0396,0.0367,0.0365,0.0367,0.0428,0.0484,0.0502,0.0566,0.0585,0,0,0.0442,0.0441,0.0459,0.045,0.0499,0.0452,0.0485,0.0444,0.0403,0.0372,0.0372,0.0432,0.0487,0.0505,0.0626,0.0643,0,0,0,0.0466,0.0497,0.0504,0.0531,0.0526,0.0542,0.0498,0.0473,0.0448,0.0402,0.0434,0.0467,0.0476,0.0508,0.0522,0.0465,0.0371,0.0371,0.0371,0.0522,0.0535,0.0596,0.0622,0.0625,0.0601,0.0596,0.0557,0.0496,0.0496,0.0523,0.0589,0.0625,0.0636,0.0576,0.0506,0.0506,0.0506,0.0506,0.0639,0.0696,0.0704,0.0774,0.0761,0.0779,0.0708,0.0661,0.0638,0.0585,0.0588,0.058,0.0655,0.0586,0.0511,0.051,0.0509,0.0509,0.0509,0.074,0.0766,0.0811,0.0886,0.0929,0.0889,0.0899,0.0827,0.0729,0.0736,0.0739,0.0738,0.0676,0.0724,0.0724,0.0725,0.0725,0.0725,0.0725,0.0817,0.086,0.0907,0.0995,0.1014,0.1043,0.1007,0.0978,0.0916,0.0845,0.0845,0.0706,0.0655,0.0645,0.0731,0.073,0.0729,0.0729,0.0728,0.0887,0.089,0.0954,0.0984,0.1054,0.1107,0.1116,0.1111,0.1074,0.1055,0.0884,0.0882,0.0866,0.0855,0.0849,0.0983,0.0983,0.0983,0.0983,0.088,0.091,0.0923,0.0949,0.1023,0.1099,0.1187,0.1249,0.113,0.1054,0.0955,0.0908,0.0901,0.0882,0.087,0.0862,0.0996,0.0996,0.0996,0.0844,0.0864,0.0843,0.0905,0.0981,0.1082,0.1213,0.1378,0.12,0.0986,0.0865,0.0865,0.078,0.0772,0.0726,0.0713,0.0693,0,0]}],[{"header":{"parameterUnit":"m.s-1","parameterCategory":2,"la1":30.2992,"la2":30.254,"lo1":-89.0895,"lo2":-89.0443,"dy":0.0025,"dx":0.0025,"nx":19,"ny":19,"refTime":"2026-05-08T21:00:00:Z","depth":"2","parameterNumber":2,"parameterNumberName":"U-component_of_CURRENTS"},"data":[0,0,0,0.1528,0.1528,0.1542,0.1542,0.1586,0.1587,0,0,0,0,0,0,0,0,0,0,0,0.1537,0.1537,0.1528,0.1528,0.1542,0.1542,0.1586,0.1587,0,0,0,0,0,0,0,0,0,0,0,0.1537,0.1537,0.1538,0.1529,0.1542,0.1542,0.1586,0.157,0,0,0,0,0,0,0,0,0,0,0.1554,0.1557,0.1537,0.1538,0.1529,0.1542,0.1542,0.1569,0.1571,0.1587,0,0.1596,0,0.1586,0.159,0.159,0,0,0,0.1533,0.1555,0.1556,0.1538,0.1529,0.1542,0.1537,0.157,0.1573,0.1589,0.1597,0.1598,0.1587,0.159,0.1591,0.1663,0.1664,0,0,0.1532,0.1541,0.1555,0.1558,0.1543,0.1537,0.1537,0.1571,0.1581,0.1597,0.1599,0.1587,0.1591,0.1591,0.1663,0.1664,0,0,0,0.1527,0.154,0.154,0.1557,0.1553,0.1537,0.1538,0.1579,0.1579,0.1599,0.1588,0.1591,0.1591,0.1663,0.1663,0.1685,0,0,0,0.1527,0.1537,0.154,0.1545,0.1553,0.1562,0.1545,0.1577,0.158,0.1588,0.1591,0.1592,0.1662,0.1663,0.1684,0.1728,0,0,0,0.1535,0.1537,0.1541,0.1546,0.1548,0.1561,0.1563,0.1577,0.1573,0.159,0.1592,0.1662,0.1663,0.1682,0.1725,0.1776,0,0,0,0.1538,0.1534,0.1542,0.1545,0.1547,0.156,0.1562,0.1584,0.1601,0.1591,0.1662,0.1663,0.1682,0.1723,0.1773,0.168,0.1685,0,0,0.1527,0.1534,0.1535,0.1541,0.1548,0.1558,0.1582,0.161,0.1623,0.1652,0.1654,0.1684,0.1724,0.1775,0.1741,0.1744,0,0,0,0.1527,0.1536,0.1543,0.1551,0.156,0.1587,0.1603,0.1624,0.1668,0.1636,0.17,0.1726,0.1756,0.1695,0.1697,0.1668,0.1668,0.1668,0.1668,0.1526,0.153,0.1557,0.1573,0.1582,0.1612,0.1656,0.1691,0.1685,0.1716,0.1753,0.1825,0.1759,0.176,0.1746,0.1746,0.1746,0.1746,0.1746,0.1551,0.1592,0.1594,0.1623,0.164,0.167,0.1709,0.1727,0.182,0.1787,0.1815,0.1733,0.1764,0.1748,0.1748,0.1748,0.1747,0.1747,0.1747,0.1631,0.1644,0.1657,0.1685,0.1716,0.1726,0.1794,0.1842,0.1862,0.1914,0.1857,0.1855,0.1855,0.1924,0.1924,0.1925,0.1925,0.1926,0.1926,0.1698,0.1705,0.1709,0.1753,0.1752,0.1793,0.1863,0.191,0.1927,0.191,0.1908,0.1886,0.1881,0.1867,0.1932,0.1931,0.193,0.193,0.1929,0.1742,0.1737,0.1727,0.1718,0.1718,0.1709,0.1798,0.186,0.1943,0.1939,0.1902,0.19,0.1896,0.1891,0.1878,0.1944,0.1944,0.1944,0.1944,0.1738,0.1753,0.1641,0.1589,0.1594,0.1623,0.1565,0.1562,0.1678,0.1659,0.167,0.1567,0.1574,0.1546,0.155,0.1527,0.1502,0.15,0.1499,0.168,0.165,0.1543,0.1513,0.1482,0.1492,0.1365,0.121,0.1281,0.1477,0.154,0.1925,0.1802,0.1801,0.1779,0.1777,0.175,0,0]},{"header":{"parameterUnit":"m.s-1","parameterCategory":2,"la1":30.2992,"la2":30.254,"lo1":-89.0895,"lo2":-89.0443,"dy":0.0025,"dx":0.0025,"nx":19,"ny":19,"refTime":"2026-05-08T21:00:00:Z","depth":"2","parameterNumber":3,"parameterNumberName":"V-component_of_CURRENTS"},"data":[0,0,0,0.0172,0.0172,0.0179,0.0179,0.0133,0.0133,0,0,0,0,0,0,0,0,0,0,0,0.0166,0.0166,0.0172,0.0172,0.0179,0.0179,0.0134,0.0133,0,0,0,0,0,0,0,0,0,0,0,0.0166,0.0166,0.0167,0.0172,0.0179,0.0179,0.0134,0.014,0,0,0,0,0,0,0,0,0,0,0.0139,0.0143,0.0166,0.0167,0.0172,0.0179,0.0179,0.0141,0.014,0.0118,0,0.0124,0,0.0131,0.013,0.0129,0,0,0,0.0164,0.0144,0.015,0.0167,0.0172,0.0179,0.0173,0.0141,0.0139,0.0116,0.0124,0.0122,0.013,0.0129,0.0129,0.0113,0.0113,0,0,0.0164,0.0161,0.0151,0.015,0.018,0.0173,0.0174,0.014,0.0137,0.0123,0.0122,0.013,0.0129,0.0128,0.0113,0.0113,0,0,0,0.0168,0.016,0.0168,0.0151,0.0158,0.0174,0.0174,0.0139,0.0143,0.0121,0.0129,0.0129,0.0128,0.0113,0.0113,0.0161,0,0,0,0.0167,0.0164,0.0168,0.0165,0.016,0.0156,0.0173,0.0145,0.0142,0.0129,0.0128,0.0127,0.0113,0.0113,0.0159,0.0193,0,0,0,0.0165,0.0163,0.0167,0.0165,0.0173,0.0157,0.0159,0.0144,0.0146,0.0129,0.0127,0.0112,0.0113,0.0157,0.019,0.0212,0,0,0,0.0157,0.0166,0.0167,0.0185,0.0173,0.0191,0.0159,0.0163,0.0153,0.0128,0.0113,0.0113,0.0157,0.0188,0.021,0.0293,0.0309,0,0,0.0165,0.0167,0.0181,0.0182,0.0213,0.019,0.0209,0.0179,0.0151,0.0117,0.0118,0.016,0.019,0.0212,0.0323,0.0338,0,0,0,0.0182,0.0192,0.0202,0.0222,0.0231,0.0236,0.0213,0.0197,0.0175,0.0149,0.0157,0.0174,0.0187,0.0232,0.0244,0.0116,0.0115,0.0115,0.0115,0.0174,0.0199,0.0229,0.0256,0.0265,0.0264,0.0264,0.0235,0.0203,0.02,0.0211,0.0259,0.0308,0.0318,0.02,0.02,0.02,0.0201,0.0201,0.0199,0.0219,0.0253,0.029,0.0302,0.0314,0.0299,0.0284,0.0286,0.0248,0.0257,0.0278,0.0334,0.0204,0.0204,0.0203,0.0203,0.0203,0.0202,0.0211,0.0217,0.0255,0.0303,0.0326,0.0334,0.0367,0.0354,0.0332,0.0352,0.0389,0.0389,0.0293,0.0353,0.0354,0.0354,0.0354,0.0354,0.0354,0.0185,0.0222,0.0237,0.03,0.0318,0.0357,0.0398,0.0432,0.0468,0.046,0.046,0.0311,0.0306,0.0302,0.0358,0.0358,0.0357,0.0357,0.0356,0.0159,0.0167,0.019,0.0211,0.0271,0.0391,0.0427,0.0583,0.0594,0.0645,0.0514,0.0509,0.0503,0.0493,0.0494,0.0597,0.0596,0.0597,0.0597,0.0106,0.0126,0.0109,0.0132,0.0215,0.037,0.0606,0.0731,0.0736,0.0672,0.0668,0.0649,0.0638,0.0636,0.0623,0.0625,0.0762,0.0762,0.0762,0.0047,0.0048,0.0032,0.0086,0.0181,0.0411,0.0745,0.0906,0.079,0.0763,0.0638,0.0619,0.058,0.0568,0.0552,0.0536,0.0534,0,0]}],[{"header":{"parameterUnit":"m.s-1","parameterCategory":2,"la1":30.2992,"la2":30.254,"lo1":-89.0895,"lo2":-89.0443,"dy":0.0025,"dx":0.0025,"nx":19,"ny":19,"refTime":"2026-05-08T21:00:00:Z","depth":"4","parameterNumber":2,"parameterNumberName":"U-component_of_CURRENTS"},"data":[0,0,0,0.0717,0.0719,0.0828,0.0828,0.0899,0.0899,0,0,0,0,0,0,0,0,0,0,0,0.0676,0.0677,0.0717,0.072,0.0828,0.0828,0.0899,0.0899,0,0,0,0,0,0,0,0,0,0,0,0.0676,0.0677,0.0678,0.072,0.0828,0.0828,0.0898,0.0834,0,0,0,0,0,0,0,0,0,0,0.0738,0.0723,0.0677,0.0678,0.0721,0.0827,0.0828,0.0832,0.0838,0.0829,0,0.0846,0,0.0873,0.0902,0.0902,0,0,0,0.0722,0.0718,0.0733,0.0678,0.0721,0.0827,0.078,0.0836,0.0843,0.0837,0.0848,0.0851,0.0875,0.0902,0.0902,0.0946,0.0946,0,0,0.0716,0.0709,0.0729,0.0738,0.0749,0.0776,0.0783,0.0841,0.0854,0.0848,0.0853,0.0876,0.0902,0.0903,0.0945,0.0946,0,0,0,0.0697,0.0705,0.0721,0.0734,0.0759,0.0779,0.0787,0.0852,0.0854,0.0854,0.0877,0.0903,0.0903,0.0945,0.0945,0.0939,0,0,0,0.0694,0.0694,0.0718,0.0717,0.0758,0.082,0.0797,0.085,0.0857,0.0876,0.0903,0.0904,0.0945,0.0945,0.0938,0.095,0,0,0,0.0671,0.0692,0.0701,0.0716,0.0761,0.082,0.0826,0.0852,0.087,0.0902,0.0904,0.0945,0.0945,0.0938,0.0949,0.096,0,0,0,0.0665,0.0669,0.0701,0.0719,0.0759,0.08,0.0827,0.0875,0.0904,0.0903,0.0945,0.0945,0.0938,0.0949,0.096,0.0799,0,0,0,0.0657,0.0668,0.0676,0.0707,0.0743,0.0785,0.0826,0.0882,0.0903,0.0921,0.0923,0.0938,0.0949,0.096,0.0821,0,0,0,0,0.0665,0.067,0.0687,0.0723,0.0762,0.0806,0.0861,0.0879,0.0922,0.0922,0.0947,0.0955,0.0962,0.0867,0.0947,0.0947,0.0947,0.0947,0.0947,0.0641,0.0665,0.0677,0.0711,0.0753,0.0826,0.0856,0.0891,0.0915,0.0935,0.0955,0.0969,0.0868,0.0955,0.0955,0.0955,0.0955,0.0955,0.0955,0.0614,0.0577,0.066,0.0678,0.0737,0.0789,0.0853,0.0887,0.0941,0.0951,0.0957,0.0873,0.0954,0.0954,0.0954,0.0954,0.0954,0.0954,0.0954,0.0545,0.0512,0.0575,0.06,0.0673,0.0757,0.0788,0.087,0.0939,0.0963,0.0883,0.0975,0.0969,0.098,0.0981,0.0981,0.0981,0.0981,0.0981,0.0399,0.0451,0.0448,0.0497,0.0535,0.0601,0.0752,0.0795,0.0906,0.0873,0.0984,0.0979,0.0978,0.0972,0.0982,0.0982,0.0982,0.0982,0.0982,0.0221,0.0264,0.0247,0.0275,0.034,0.0393,0.057,0.0688,0.0733,0.075,0.0814,0.0821,0.0814,0.0818,0.0806,0.0768,0.0766,0.0764,0,0.0081,0.0098,0.0088,0.0094,0.0105,0.0251,0.032,0.0438,0.0581,0.0553,0.0694,0.0758,0.0766,0.0749,0.075,0.073,0,0,0,-0.0032,-0.0018,-0.0061,-0.004,-0.0002,0.0146,0.0329,0.0347,0.058,0.0596,0.0713,0.0726,0.0829,0.0987,0.0995,0.0994,0.0986,0,0]},{"header":{"parameterUnit":"m.s-1","parameterCategory":2,"la1":30.2992,"la2":30.254,"lo1":-89.0895,"lo2":-89.0443,"dy":0.0025,"dx":0.0025,"nx":19,"ny":19,"refTime":"2026-05-08T21:00:00:Z","depth":"4","parameterNumber":3,"parameterNumberName":"V-component_of_CURRENTS"},"data":[0,0,0,0.0168,0.0168,0.0175,0.0175,0.0156,0.0156,0,0,0,0,0,0,0,0,0,0,0,0.0168,0.0168,0.0168,0.0168,0.0175,0.0175,0.0156,0.0156,0,0,0,0,0,0,0,0,0,0,0,0.0168,0.0168,0.0168,0.0168,0.0175,0.0175,0.0156,0.0158,0,0,0,0,0,0,0,0,0,0,0.0154,0.0151,0.0168,0.0168,0.0168,0.0175,0.0175,0.0158,0.0158,0.0145,0,0.015,0,0.0151,0.0154,0.0154,0,0,0,0.0167,0.0151,0.0161,0.0168,0.0168,0.0175,0.0172,0.0158,0.0157,0.0144,0.015,0.0149,0.0151,0.0154,0.0154,0.0144,0.0144,0,0,0.0167,0.016,0.0161,0.0161,0.0174,0.0172,0.0172,0.0158,0.0154,0.015,0.0149,0.0151,0.0154,0.0154,0.0144,0.0144,0,0,0,0.0166,0.016,0.017,0.0161,0.0164,0.0172,0.0172,0.0154,0.016,0.0149,0.015,0.0154,0.0153,0.0144,0.0144,0.018,0,0,0,0.0166,0.016,0.017,0.0165,0.0165,0.0161,0.0169,0.0161,0.016,0.015,0.0154,0.0153,0.0144,0.0144,0.0179,0.0189,0,0,0,0.0167,0.0159,0.0164,0.0165,0.0169,0.0161,0.0166,0.0161,0.016,0.0154,0.0153,0.0144,0.0144,0.0178,0.0187,0.0214,0,0,0,0.0155,0.016,0.0163,0.0171,0.0169,0.0182,0.0166,0.0169,0.0165,0.0153,0.0144,0.0144,0.0178,0.0186,0.0212,0.0228,0,0,0,0.0156,0.016,0.0166,0.017,0.0185,0.0181,0.0194,0.0182,0.0163,0.0146,0.0146,0.018,0.0187,0.0213,0.0241,0,0,0,0,0.0163,0.0163,0.0171,0.0179,0.0193,0.0203,0.0196,0.0193,0.0184,0.0163,0.0174,0.0177,0.0193,0.0198,0.0145,0.0145,0.0145,0.0145,0.0145,0.0134,0.0155,0.0161,0.0184,0.02,0.0216,0.0226,0.0217,0.0201,0.0203,0.0203,0.0242,0.0247,0.0202,0.0202,0.0202,0.0202,0.0202,0.0202,0.0114,0.0127,0.0148,0.0161,0.0193,0.021,0.0242,0.0244,0.0257,0.023,0.0244,0.023,0.0206,0.0205,0.0204,0.0204,0.0204,0.0204,0.0203,0.007,0.0095,0.0091,0.0137,0.0173,0.0219,0.029,0.0291,0.028,0.0297,0.0303,0.0266,0.0268,0.0308,0.0308,0.0308,0.0308,0.0308,0.0308,0.0058,0.0064,0.0123,0.0133,0.0202,0.0265,0.032,0.0353,0.0342,0.0341,0.0308,0.0277,0.0273,0.0273,0.0311,0.031,0.031,0.031,0.031,0.0112,0.0117,0.0192,0.0256,0.0383,0.0387,0.0427,0.0423,0.045,0.0432,0.0368,0.0364,0.0352,0.0347,0.0349,0.041,0.0411,0.0411,0,0.0198,0.0184,0.0342,0.0456,0.0537,0.0512,0.0553,0.0533,0.0465,0.0457,0.0453,0.0382,0.0378,0.0365,0.0361,0.0365,0,0,0,0.0331,0.0332,0.0459,0.051,0.0611,0.0592,0.0554,0.0534,0.0478,0.0466,0.042,0.0418,0.0381,0.0319,0.0292,0.0288,0.0286,0,0]}]]